(50582) = 2000 ED42

Discovered at Socorro on 2000-03-08 by LINEAR.

Orbit

Orbit type: Main Belt

Note: WebGL enabled browser required.

epoch2023-09-13.0
epoch JD2460200.5
perihelion date2018-04-25.81334
perihelion JD2458234.31334
argument of perihelion (°)302.43948
ascending node (°)342.01152
inclination (°)4.99641
eccentricity0.1468903
perihelion distance (AU)2.6933176
Tisserand w.r.t. Jupiter3.2
ΔV w.r.t. Earth (km/sec)10.4
semimajor axis (AU)3.1570590
mean anomaly (°)345.46539
mean daily motion (°/day)0.17570330
aphelion distance (AU)3.621
period (years)5.61
P-vector [x]0.25054231
P-vector [y]-0.85641787
P-vector [z]-0.45141665
Q-vector [x]0.96773194
Q-vector [y]0.20859756
Q-vector [z]0.14135750
absolute magnitude14.18
phase slope0.15
uncertainty0
referenceMPEC 2024-A48
observations used1507
oppositions23
arc length (days)11593
first opposition used1991
last opposition used2023
residual rms (arc-secs)0.69
perturbers coarse indicatorM-v
perturbers precise indicator003Ek
first observation date used1991-11-09.0
last observation date used2023-08-05.0
computer nameMPCLINUX
JD of orbit computation2456670.805487
perihelion JD uncertainty (days)1.2413E-04
argument of perihelion uncertainty (°)5.2233E-05
ascending node uncertainty (°)4.7981E-05
inclination uncertainty (°)5.9835E-06
eccentricity uncertainty 3.6366E-08
perihelion distance uncertainty (AU)1.1627E-07
Minimum Orbit Intersection Distances (in AU)
for orbit epoch: 2460200.5, reference: E2024-A48
Mercury2.23526
Venus1.96661
Earth1.68063
Mars1.25182
Jupiter1.57162
Saturn5.46452
Uranus15.0014
Neptune26.4424

Observations

1547 total observations over interval: 1991 11 09.09165 – 2023 08 05.838353
These data are available for download (format description).

Date (UT) J2000 RA J2000 Dec Magn Location Ref
1991 11 09.09165 02 05 23.66 +19 04 19.4 18.9 V 691 – Steward Observatory, Kitt Peak-Spacewatch MPS 51713
1991 11 09.11290 02 05 22.64 +19 04 14.8   691 – Steward Observatory, Kitt Peak-Spacewatch MPS 51713
1991 11 09.14272 02 05 21.24 +19 04 08.3   691 – Steward Observatory, Kitt Peak-Spacewatch MPS 51713
1994 02 16.42543 10 33 15.94 +10 15 40.7 18.5 V 691 – Steward Observatory, Kitt Peak-Spacewatch MPS 51713
1994 02 16.44235 10 33 15.14 +10 15 43.9   691 – Steward Observatory, Kitt Peak-Spacewatch MPS 51713
1994 02 16.46361 10 33 14.14 +10 15 48.4   691 – Steward Observatory, Kitt Peak-Spacewatch MPS 51713
1996 09 06.27114 23 22 05.57 -03 16 09.3 18.0 V 691 – Steward Observatory, Kitt Peak-Spacewatch MPS 81237
1996 09 06.29213 23 22 04.54 -03 16 13.4 18.1 V 691 – Steward Observatory, Kitt Peak-Spacewatch MPS 81237
1996 09 06.31316 23 22 03.50 -03 16 17.4 18.0 V 691 – Steward Observatory, Kitt Peak-Spacewatch MPS 81237
1997 11 23.74444 04 07 22.87 +27 58 46.2   327 – Peking Observatory, Xinglong Station MPS 51713
1997 11 23.74882 04 07 22.64 +27 58 45.9 19.2   327 – Peking Observatory, Xinglong Station MPS 51713
1997 11 23.75749 04 07 22.15 +27 58 44.5   327 – Peking Observatory, Xinglong Station MPS 51713
2000 03 08.40904 12 18 42.01 -04 28 28.4 18.4   704 – Lincoln Laboratory ETS, New Mexico MPS 11418
2000 03 08.42230 12 18 41.46 -04 28 25.4 18.4   704 – Lincoln Laboratory ETS, New Mexico MPS 11418
2000 03 08.43564 12 18 40.94 -04 28 23.1 18.9   704 – Lincoln Laboratory ETS, New Mexico MPS 11418
2000 03 08.44892 12 18 40.30 -04 28 20.9 18.7   704 – Lincoln Laboratory ETS, New Mexico MPS 11418
2000 03 10.38565 12 17 18.71 -04 22 42.4 18.6   704 – Lincoln Laboratory ETS, New Mexico MPS 11418
2000 03 10.39826 12 17 18.16 -04 22 40.5 18.8   704 – Lincoln Laboratory ETS, New Mexico MPS 11418
2000 03 10.41507 12 17 17.44 -04 22 37.1 18.9   704 – Lincoln Laboratory ETS, New Mexico MPS 11418
2000 03 10.43185 12 17 16.72 -04 22 34.1 19.0   704 – Lincoln Laboratory ETS, New Mexico MPS 11418
2000 03 10.44445 12 17 16.14 -04 22 32.2 19.3   704 – Lincoln Laboratory ETS, New Mexico MPS 11418
2000 03 11.38372 12 16 35.71 -04 19 40.9 18.8   704 – Lincoln Laboratory ETS, New Mexico MPS 11418
2000 03 11.39857 12 16 35.06 -04 19 38.3 18.7   704 – Lincoln Laboratory ETS, New Mexico MPS 11418
2000 03 11.41498 12 16 34.31 -04 19 35.2 18.7   704 – Lincoln Laboratory ETS, New Mexico MPS 11418
2000 03 11.42774 12 16 33.74 -04 19 32.7 18.6   704 – Lincoln Laboratory ETS, New Mexico MPS 11418
2000 03 11.44642 12 16 32.95 -04 19 29.0 18.8   704 – Lincoln Laboratory ETS, New Mexico MPS 11418
2000 03 26.33668 12 05 06.70 -03 27 20.6 18.4 R 699 – Lowell Observatory-LONEOS MPS 12336
2000 03 26.35724 12 05 05.72 -03 27 16.9   699 – Lowell Observatory-LONEOS MPS 12336
2000 03 26.37785 12 05 04.75 -03 27 11.5   699 – Lowell Observatory-LONEOS MPS 12336
2000 03 26.39846 12 05 03.71 -03 27 06.7   699 – Lowell Observatory-LONEOS MPS 12336
2000 04 04.32682 11 58 12.56 -02 53 22.6 18.8   704 – Lincoln Laboratory ETS, New Mexico MPS 12336
2000 04 04.34114 11 58 11.99 -02 53 19.8 19.0   704 – Lincoln Laboratory ETS, New Mexico MPS 12336
2000 04 04.35545 11 58 11.24 -02 53 16.4 19.1   704 – Lincoln Laboratory ETS, New Mexico MPS 12336
2000 04 04.36976 11 58 10.53 -02 53 13.8 19.2   704 – Lincoln Laboratory ETS, New Mexico MPS 12336
2000 04 07.19459 11 56 07.73 -02 42 51.1 18.5   704 – Lincoln Laboratory ETS, New Mexico MPS 12336
2000 04 07.20870 11 56 07.15 -02 42 48.2 19.0   704 – Lincoln Laboratory ETS, New Mexico MPS 12336
2000 04 07.22282 11 56 06.44 -02 42 45.2 18.7   704 – Lincoln Laboratory ETS, New Mexico MPS 12336
2000 04 07.23695 11 56 05.91 -02 42 40.6 18.6   704 – Lincoln Laboratory ETS, New Mexico MPS 12336
2000 04 07.25108 11 56 05.24 -02 42 38.7 19.2   704 – Lincoln Laboratory ETS, New Mexico MPS 12336
2000 04 08.19286 11 55 25.37 -02 39 16.3 18.7   704 – Lincoln Laboratory ETS, New Mexico MPS 12336
2000 04 08.20667 11 55 24.75 -02 39 11.5 18.7   704 – Lincoln Laboratory ETS, New Mexico MPS 12336
2000 04 08.20895 11 55 24.77 -02 39 11.0 18.4   704 – Lincoln Laboratory ETS, New Mexico MPS 12336
2000 04 08.22044 11 55 24.20 -02 39 09.7 18.9   704 – Lincoln Laboratory ETS, New Mexico MPS 12336
2000 04 08.22371 11 55 24.10 -02 39 07.5 18.9   704 – Lincoln Laboratory ETS, New Mexico MPS 12336
2000 04 08.23423 11 55 23.56 -02 39 07.1 18.4   704 – Lincoln Laboratory ETS, New Mexico MPS 12336
2000 04 08.24103 11 55 23.39 -02 39 03.8 18.4   704 – Lincoln Laboratory ETS, New Mexico MPS 12336
2000 04 08.24801 11 55 22.96 -02 39 03.7 18.4   704 – Lincoln Laboratory ETS, New Mexico MPS 12336
2000 04 08.25671 11 55 22.67 -02 39 01.1 18.4   704 – Lincoln Laboratory ETS, New Mexico MPS 12336
2000 04 08.27090 11 55 22.11 -02 38 57.4 18.8   704 – Lincoln Laboratory ETS, New Mexico MPS 12336
2000 05 02.16085 11 43 02.63 -01 34 47.9 19.0 R 699 – Lowell Observatory-LONEOS MPS 14153
2000 05 02.17666 11 43 02.27 -01 34 44.6   699 – Lowell Observatory-LONEOS MPS 14153
2000 05 02.19252 11 43 01.95 -01 34 42.9   699 – Lowell Observatory-LONEOS MPS 14153
2000 05 02.20843 11 43 01.73 -01 34 42.6   699 – Lowell Observatory-LONEOS MPS 14153
2002 09 06.33067 01 49 43.84 +15 22 38.9 18.9   704 – Lincoln Laboratory ETS, New Mexico MPS 61003
2002 09 06.34478 01 49 43.59 +15 22 40.6 19.4   704 – Lincoln Laboratory ETS, New Mexico MPS 61003
2002 09 06.37320 01 49 42.99 +15 22 41.4 20.1   704 – Lincoln Laboratory ETS, New Mexico MPS 61003
2002 09 06.38740 01 49 42.75 +15 22 41.6 19.7   704 – Lincoln Laboratory ETS, New Mexico MPS 61003
2002 10 01.31394 01 36 10.14 +14 56 13.9 18.6 R 699 – Lowell Observatory-LONEOS MPS 62924
2002 10 01.33593 01 36 09.13 +14 56 11.1   699 – Lowell Observatory-LONEOS MPS 62924
2002 10 01.35791 01 36 08.13 +14 56 08.7   699 – Lowell Observatory-LONEOS MPS 62924
2002 10 01.37989 01 36 07.06 +14 56 04.8   699 – Lowell Observatory-LONEOS MPS 62924
2002 10 04.32636 01 33 54.01 +14 48 11.1 18.8   704 – Lincoln Laboratory ETS, New Mexico MPS 62924
2002 10 04.34181 01 33 53.33 +14 48 08.8 19.1   704 – Lincoln Laboratory ETS, New Mexico MPS 62924
2002 10 04.35730 01 33 52.62 +14 48 07.2 18.9   704 – Lincoln Laboratory ETS, New Mexico MPS 62924
2002 10 04.37282 01 33 51.87 +14 48 03.3 19.1   704 – Lincoln Laboratory ETS, New Mexico MPS 62924
2002 10 04.38826 01 33 51.08 +14 48 02.1 18.8   704 – Lincoln Laboratory ETS, New Mexico MPS 62924
2002 10 06.39392 01 32 17.68 +14 42 09.8 18.3   704 – Lincoln Laboratory ETS, New Mexico MPS 62924
2002 10 06.40959 01 32 16.96 +14 42 07.1 18.4   704 – Lincoln Laboratory ETS, New Mexico MPS 62924
2002 10 06.42454 01 32 16.21 +14 42 04.4 18.8   704 – Lincoln Laboratory ETS, New Mexico MPS 62924
2002 10 06.43941 01 32 15.49 +14 42 01.2 18.4   704 – Lincoln Laboratory ETS, New Mexico MPS 62924
2002 10 06.45425 01 32 14.77 +14 41 57.8 18.9   704 – Lincoln Laboratory ETS, New Mexico MPS 62924
2002 10 09.25965 01 30 01.68 +14 33 11.7 19.3   704 – Lincoln Laboratory ETS, New Mexico MPS 62924
2002 10 09.27531 01 30 00.93 +14 33 08.0 19.7   704 – Lincoln Laboratory ETS, New Mexico MPS 62924
2002 10 09.29080 01 30 00.08 +14 33 05.9 19.0   704 – Lincoln Laboratory ETS, New Mexico MPS 62924
2002 10 09.30638 01 29 59.38 +14 33 02.4 19.7   704 – Lincoln Laboratory ETS, New Mexico MPS 62924
2002 10 09.32213 01 29 58.62 +14 32 59.2 19.4   704 – Lincoln Laboratory ETS, New Mexico MPS 62924
2002 10 12.25657 01 27 36.95 +14 23 07.2 18.6   704 – Lincoln Laboratory ETS, New Mexico MPS 62924
2002 10 12.27300 01 27 36.11 +14 23 03.7 18.7   704 – Lincoln Laboratory ETS, New Mexico MPS 62924
2002 10 12.28985 01 27 35.31 +14 23 00.3 18.9   704 – Lincoln Laboratory ETS, New Mexico MPS 62924
2002 10 12.30630 01 27 34.47 +14 22 56.9 18.7   704 – Lincoln Laboratory ETS, New Mexico MPS 62924
2002 10 12.32305 01 27 33.61 +14 22 53.0 18.9   704 – Lincoln Laboratory ETS, New Mexico MPS 62924
2002 10 31.21129 01 12 52.16 +13 10 53.3 18.5 R 699 – Lowell Observatory-LONEOS MPS 65587
2002 10 31.21630 01 12 51.97 +13 10 49.6 17.3   644 – Palomar Mountain/NEAT MPS 65587
2002 10 31.23325 01 12 51.18 +13 10 48.6   699 – Lowell Observatory-LONEOS MPS 65587
